******** Week 355 almanac for PRN-1 ******** ID: 1 Health: 0 Eccentricity: 0.001438140869 Time of Applicability(s): 405504 Orbital Inclination(rad): 0.9584108231 Rate of Right Ascen(r/s): -8.137481816e-09 SQRT(A) (m 1/2): 5153.581543 Right Ascen at Week(rad): -2.521289923 Argument of Perigee(rad): 0.003423368747 Mean Anom(rad): -0.5940246977 Af0(s): 0.0002675543823 Af1(s/s): -3.637979e-12 week: 355 ******** Week 355 almanac for PRN-2 ******** ID: 2 Health: 0 Eccentricity: 0.01697778702 Time of Applicability(s): 405504 Orbital Inclination(rad): 0.9638816218 Rate of Right Ascen(r/s): -7.943188008e-09 SQRT(A) (m 1/2): 5153.561035 Right Ascen at Week(rad): -2.683936452 Argument of Perigee(rad): -0.8382935364 Mean Anom(rad): 0.8065679225 Af0(s): 2.185655518e-05 Af1(s/s): 7.275958e-12 week: 355 ******** Week 355 almanac for PRN-3 ******** ID: 3 Health: 0 Eccentricity: 0.006378650665 Time of Applicability(s): 405504 Orbital Inclination(rad): 0.9926617379 Rate of Right Ascen(r/s): -7.886042771e-09 SQRT(A) (m 1/2): 5153.600586 Right Ascen at Week(rad): -1.53497885 Argument of Perigee(rad): 1.20589503 Mean Anom(rad): -2.808699349 Af0(s): 0.000462002356 Af1(s/s): -1.091394e-11 week: 355 ******** Week 355 almanac for PRN-4 ******** ID: 4 Health: 0 Eccentricity: 0.003718852997 Time of Applicability(s): 405504 Orbital Inclination(rad): 0.9705987798 Rate of Right Ascen(r/s): -7.577458489e-09 SQRT(A) (m 1/2): 5153.70459 Right Ascen at Week(rad): -0.4637483083 Argument of Perigee(rad): -2.902568413 Mean Anom(rad): 0.2247214444 Af0(s): 3.240799561e-05 Af1(s/s): 3.637979e-12 week: 355 ******** Week 355 almanac for PRN-5 ******** ID: 5 Health: 0 Eccentricity: 0.00536775589 Time of Applicability(s): 405504 Orbital Inclination(rad): 0.9792334139 Rate of Right Ascen(r/s): -8.046049436e-09 SQRT(A) (m 1/2): 5153.640137 Right Ascen at Week(rad): -1.594332971 Argument of Perigee(rad): 1.421090139 Mean Anom(rad): 0.8507766047 Af0(s): -0.0001801281616 Af1(s/s): 0 week: 355 ******** Week 355 almanac for PRN-6 ******** ID: 6 Health: 0 Eccentricity: 0.003874778748 Time of Applicability(s): 405504 Orbital Inclination(rad): 0.9873647105 Rate of Right Ascen(r/s): -7.828897533e-09 SQRT(A) (m 1/2): 5153.57373 Right Ascen at Week(rad): -2.571663739 Argument of Perigee(rad): -0.6102753067 Mean Anom(rad): -1.442774845 Af0(s): -0.0004793368652 Af1(s/s): -3.637979e-12 week: 355 ******** Week 355 almanac for PRN-7 ******** ID: 7 Health: 0 Eccentricity: 0.02026319504 Time of Applicability(s): 405504 Orbital Inclination(rad): 0.951052509 Rate of Right Ascen(r/s): -7.794610391e-09 SQRT(A) (m 1/2): 5153.575195 Right Ascen at Week(rad): 0.5447313336 Argument of Perigee(rad): -2.001301894 Mean Anom(rad): -2.343768722 Af0(s): -0.0001122974731 Af1(s/s): -3.637979e-12 week: 355 ******** Week 355 almanac for PRN-8 ******** ID: 8 Health: 0 Eccentricity: 0.01147413254 Time of Applicability(s): 405504 Orbital Inclination(rad): 0.9440896743 Rate of Right Ascen(r/s): -7.783181343e-09 SQRT(A) (m 1/2): 5153.625488 Right Ascen at Week(rad): 2.593053708 Argument of Perigee(rad): 0.5093160764 Mean Anom(rad): 0.5001148133 Af0(s): 0.0003941716675 Af1(s/s): -3.637979e-12 week: 355 ******** Week 355 almanac for PRN-9 ******** ID: 9 Health: 0 Eccentricity: 0.003338813782 Time of Applicability(s): 405504 Orbital Inclination(rad): 0.9647025412 Rate of Right Ascen(r/s): -7.657461821e-09 SQRT(A) (m 1/2): 5153.528809 Right Ascen at Week(rad): -0.5277511849 Argument of Perigee(rad): 2.064511565 Mean Anom(rad): 1.098389042 Af0(s): 0.0006089688477 Af1(s/s): 0 week: 355 ******** Week 355 almanac for PRN-10 ******** ID: 10 Health: 0 Eccentricity: 0.01096773148 Time of Applicability(s): 405504 Orbital Inclination(rad): 0.9922003452 Rate of Right Ascen(r/s): -7.874613723e-09 SQRT(A) (m 1/2): 5153.606445 Right Ascen at Week(rad): -1.537489919 Argument of Perigee(rad): -2.261012406 Mean Anom(rad): 2.49640056 Af0(s): -0.0004627560303 Af1(s/s): -3.637979e-12 week: 355 ******** Week 355 almanac for PRN-11 ******** ID: 11 Health: 0 Eccentricity: 0.002242088318 Time of Applicability(s): 405504 Orbital Inclination(rad): 0.9641992037 Rate of Right Ascen(r/s): -8.068907531e-09 SQRT(A) (m 1/2): 5153.511719 Right Ascen at Week(rad): -2.552162035 Argument of Perigee(rad): -2.285132157 Mean Anom(rad): -0.4350580738 Af0(s): -0.0003610099976 Af1(s/s): 1.455192e-11 week: 355 ******** Week 355 almanac for PRN-12 ******** ID: 12 Health: 0 Eccentricity: 0.009076595306 Time of Applicability(s): 405504 Orbital Inclination(rad): 0.9587703498 Rate of Right Ascen(r/s): -7.817468486e-09 SQRT(A) (m 1/2): 5153.495605 Right Ascen at Week(rad): 1.662612343 Argument of Perigee(rad): 1.539711121 Mean Anom(rad): -2.956114304 Af0(s): -0.0004800905395 Af1(s/s): 0 week: 355 ******** Week 355 almanac for PRN-13 ******** ID: 13 Health: 0 Eccentricity: 0.009938240051 Time of Applicability(s): 405504 Orbital Inclination(rad): 0.976309263 Rate of Right Ascen(r/s): -7.508884204e-09 SQRT(A) (m 1/2): 5153.631836 Right Ascen at Week(rad): -0.3531357849 Argument of Perigee(rad): 0.9997053167 Mean Anom(rad): 0.235384783 Af0(s): 0.0005441528564 Af1(s/s): 0 week: 355 ******** Week 355 almanac for PRN-14 ******** ID: 14 Health: 0 Eccentricity: 0.006568908691 Time of Applicability(s): 405504 Orbital Inclination(rad): 0.942100293 Rate of Right Ascen(r/s): -8.023191341e-09 SQRT(A) (m 1/2): 5153.58252 Right Ascen at Week(rad): 1.608468364 Argument of Perigee(rad): -2.761044828 Mean Anom(rad): 3.126520245 Af0(s): 0.0005780682007 Af1(s/s): 3.637979e-12 week: 355 ******** Week 355 almanac for PRN-15 ******** ID: 15 Health: 0 Eccentricity: 0.01660680771 Time of Applicability(s): 405504 Orbital Inclination(rad): 0.9424538276 Rate of Right Ascen(r/s): -7.943188008e-09 SQRT(A) (m 1/2): 5153.634277 Right Ascen at Week(rad): -0.6709817724 Argument of Perigee(rad): 1.495134672 Mean Anom(rad): -0.5029116317 Af0(s): 0.0003014697266 Af1(s/s): 3.637979e-12 week: 355 ******** Week 355 almanac for PRN-16 ******** ID: 16 Health: 0 Eccentricity: 0.01505374908 Time of Applicability(s): 405504 Orbital Inclination(rad): 0.9579134778 Rate of Right Ascen(r/s): -7.863184676e-09 SQRT(A) (m 1/2): 5153.570312 Right Ascen at Week(rad): 1.679652413 Argument of Perigee(rad): 0.9249121435 Mean Anom(rad): 1.507387793 Af0(s): 0.0001560105835 Af1(s/s): 7.275958e-12 week: 355 ******** Week 355 almanac for PRN-17 ******** ID: 17 Health: 0 Eccentricity: 0.01275253296 Time of Applicability(s): 405504 Orbital Inclination(rad): 0.9598728985 Rate of Right Ascen(r/s): -7.668890868e-09 SQRT(A) (m 1/2): 5153.529785 Right Ascen at Week(rad): 2.69721385 Argument of Perigee(rad): -1.130682409 Mean Anom(rad): 0.4015161008 Af0(s): -3.768371582e-05 Af1(s/s): -1.091394e-11 week: 355 ******** Week 355 almanac for PRN-18 ******** ID: 18 Health: 0 Eccentricity: 0.005704879761 Time of Applicability(s): 405504 Orbital Inclination(rad): 0.9723185161 Rate of Right Ascen(r/s): -7.966046103e-09 SQRT(A) (m 1/2): 5153.598633 Right Ascen at Week(rad): -2.576243211 Argument of Perigee(rad): -2.856881926 Mean Anom(rad): -1.583434067 Af0(s): -0.0003466901855 Af1(s/s): 1.091394e-11 week: 355 ******** Week 355 almanac for PRN-19 ******** ID: 19 Health: 0 Eccentricity: 0.01102685928 Time of Applicability(s): 405504 Orbital Inclination(rad): 0.9590819397 Rate of Right Ascen(r/s): -7.657461821e-09 SQRT(A) (m 1/2): 5153.66748 Right Ascen at Week(rad): 2.741110193 Argument of Perigee(rad): 2.919085296 Mean Anom(rad): 2.252530946 Af0(s): 0.0005433991821 Af1(s/s): 0 week: 355 ******** Week 355 almanac for PRN-21 ******** ID: 21 Health: 0 Eccentricity: 0.0006227493286 Time of Applicability(s): 405504 Orbital Inclination(rad): 0.962083988 Rate of Right Ascen(r/s): -8.183198006e-09 SQRT(A) (m 1/2): 5153.697266 Right Ascen at Week(rad): -1.527759103 Argument of Perigee(rad): -0.445113962 Mean Anom(rad): 3.12623562 Af0(s): 0.0003082527954 Af1(s/s): 7.275958e-12 week: 355 ******** Week 355 almanac for PRN-22 ******** ID: 22 Health: 0 Eccentricity: 0.01217556 Time of Applicability(s): 405504 Orbital Inclination(rad): 0.9573502192 Rate of Right Ascen(r/s): -7.874613723e-09 SQRT(A) (m 1/2): 5153.566406 Right Ascen at Week(rad): 1.682995637 Argument of Perigee(rad): -0.9962797009 Mean Anom(rad): 1.053132115 Af0(s): -4.220576172e-05 Af1(s/s): 3.637979e-12 week: 355 ******** Week 355 almanac for PRN-23 ******** ID: 23 Health: 0 Eccentricity: 0.006000041962 Time of Applicability(s): 405504 Orbital Inclination(rad): 0.9872029234 Rate of Right Ascen(r/s): -7.943188008e-09 SQRT(A) (m 1/2): 5153.655273 Right Ascen at Week(rad): -1.569440987 Argument of Perigee(rad): -2.742234838 Mean Anom(rad): -2.692338518 Af0(s): 0.0004785831909 Af1(s/s): 3.637979e-12 week: 355 ******** Week 355 almanac for PRN-24 ******** ID: 24 Health: 0 Eccentricity: 0.01784181595 Time of Applicability(s): 405504 Orbital Inclination(rad): 0.935119482 Rate of Right Ascen(r/s): -7.954617056e-09 SQRT(A) (m 1/2): 5153.591309 Right Ascen at Week(rad): 0.4368328626 Argument of Perigee(rad): 1.130940819 Mean Anom(rad): -1.362332608 Af0(s): -0.0001130511475 Af1(s/s): 1.455192e-11 week: 355 ******** Week 355 almanac for PRN-25 ******** ID: 25 Health: 0 Eccentricity: 0.01294708252 Time of Applicability(s): 405504 Orbital Inclination(rad): 0.9470917227 Rate of Right Ascen(r/s): -7.977475151e-09 SQRT(A) (m 1/2): 5153.672363 Right Ascen at Week(rad): 1.569108424 Argument of Perigee(rad): 1.153014637 Mean Anom(rad): -3.12027534 Af0(s): 0.0003534732544 Af1(s/s): -3.637979e-12 week: 355 ******** Week 355 almanac for PRN-26 ******** ID: 26 Health: 0 Eccentricity: 0.01098012924 Time of Applicability(s): 405504 Orbital Inclination(rad): 0.927875018 Rate of Right Ascen(r/s): -8.228914196e-09 SQRT(A) (m 1/2): 5153.629395 Right Ascen at Week(rad): 1.49514778 Argument of Perigee(rad): 0.7048072473 Mean Anom(rad): 2.336232143 Af0(s): -0.0002517272217 Af1(s/s): -7.275958e-12 week: 355 ******** Week 355 almanac for PRN-27 ******** ID: 27 Health: 0 Eccentricity: 0.01423931122 Time of Applicability(s): 405504 Orbital Inclination(rad): 0.9532096695 Rate of Right Ascen(r/s): -7.703178011e-09 SQRT(A) (m 1/2): 5153.619629 Right Ascen at Week(rad): 2.624789434 Argument of Perigee(rad): 0.8712715018 Mean Anom(rad): 0.5934854076 Af0(s): -2.261022949e-05 Af1(s/s): -7.275958e-12 week: 355 ******** Week 355 almanac for PRN-28 ******** ID: 28 Health: 0 Eccentricity: 0.0004034042358 Time of Applicability(s): 405504 Orbital Inclination(rad): 0.9620240669 Rate of Right Ascen(r/s): -7.726036106e-09 SQRT(A) (m 1/2): 5153.716797 Right Ascen at Week(rad): 0.5186334368 Argument of Perigee(rad): 0.2580993833 Mean Anom(rad): -2.240933587 Af0(s): -0.0004770758423 Af1(s/s): 7.275958e-12 week: 355 ******** Week 355 almanac for PRN-29 ******** ID: 29 Health: 0 Eccentricity: 0.003296375275 Time of Applicability(s): 405504 Orbital Inclination(rad): 0.9625274043 Rate of Right Ascen(r/s): -7.657461821e-09 SQRT(A) (m 1/2): 5153.734375 Right Ascen at Week(rad): 2.713836719 Argument of Perigee(rad): 2.744397991 Mean Anom(rad): 0.4702905715 Af0(s): -0.0003037307495 Af1(s/s): 7.275958e-12 week: 355 ******** Week 355 almanac for PRN-30 ******** ID: 30 Health: 0 Eccentricity: 0.007928848267 Time of Applicability(s): 405504 Orbital Inclination(rad): 0.9363119124 Rate of Right Ascen(r/s): -7.988904198e-09 SQRT(A) (m 1/2): 5153.712891 Right Ascen at Week(rad): 0.5361955694 Argument of Perigee(rad): -2.339766366 Mean Anom(rad): -2.468149622 Af0(s): 8.215050049e-05 Af1(s/s): 1.091394e-11 week: 355 ******** Week 355 almanac for PRN-31 ******** ID: 31 Health: 0 Eccentricity: 0.010846138 Time of Applicability(s): 405504 Orbital Inclination(rad): 0.9548035714 Rate of Right Ascen(r/s): -7.806039438e-09 SQRT(A) (m 1/2): 5153.707031 Right Ascen at Week(rad): 0.568810263 Argument of Perigee(rad): 0.933383118 Mean Anom(rad): 2.862683789 Af0(s): -0.0001341540283 Af1(s/s): 3.637979e-12 week: 355 ******** Week 355 almanac for PRN-32 ******** ID: 32 Health: 0 Eccentricity: 0.009229183197 Time of Applicability(s): 405504 Orbital Inclination(rad): 0.9677705027 Rate of Right Ascen(r/s): -7.588887536e-09 SQRT(A) (m 1/2): 5153.677734 Right Ascen at Week(rad): -0.5108627905 Argument of Perigee(rad): -2.018100781 Mean Anom(rad): 1.195221579 Af0(s): -0.0001115437988 Af1(s/s): 1.818989e-11 week: 355